Regional Weather Roundup
Issued by NWS Binghamton, NY

Home | Current Version | Previous Version | Text Only | Print | Product List | Glossary On
Versions: 1 2 3 4 5 6 7 8 9 10 11 12 13 14 15 16 17 18 19 20 21 22 23 24 25 26 27
000
ASUS41 KBGM 241710
RWRBGM

REGIONAL WEATHER ROUNDUP
NATIONAL WEATHER SERVICE BINGHAMTON NY
100 PM EDT SUN JUL 24 2016

Note: "fair" indicates few or no clouds below 12,000 feet with no
significant weather and/or obstructions to visibility.

* = Station(s) that does not report precipitation, such as rain,
snow, etc, also no thunder or fog.

NYZ009-015>018-022>025-036-037-044>046-055>057-062-241800
...Central New York...

CITY           SKY/WX    TMP DP  RH WIND       PRES   REMARKS
Binghamton     PTSUNNY   84  56  38 W7        30.04F
Cortland       FAIR      84  55  37 CALM      30.03F
Dansville      MOSUNNY   88  59  37 NW9       29.99F HX  87
Elmira         MOSUNNY   89  56  32 S6        29.99F HX  87
Ithaca         PTSUNNY   84  57  39 VRB7      30.03F
Hamilton       SUNNY     82  61  47 N3        30.04F
Hornell        SUNNY     88  55  33 NW6       30.04F HX  86
Monticello     MOSUNNY   82  59  44 NW7G17    30.05F
Norwich        SUNNY     82  61  47 N5        30.03F
Oneonta        SUNNY     79  54  41 NW7       30.06F
Penn Yan       MOSUNNY   85  59  41 CALM      30.02F
Rome           SUNNY     81  61  50 VRB3      30.01F
Sidney         SUNNY     82  63  51 CALM      30.03F
Syracuse       PTSUNNY   84  58  40 NW7       30.00F
$$

PAZ038>040-043-044-047-048-072-241800
...Northeast Pennsylvania...

CITY           SKY/WX    TMP DP  RH WIND       PRES   REMARKS
Hazleton       MOSUNNY   86  59  39 SW3       30.10S HX  85
Scranton       MOSUNNY   90  57  32 W13       30.01F HX  88
$$
&&
KEY
WCI = Wind Chill Index
VSB = Visibility
HX  = Heat Index
$$




USA.gov is the U.S. government's official web portal to all federal, state and local government web resources and services.